Simultaneous Nadir Overpasses (SNOs) Predictions

Prediction of SNOs between GOES-17 and NOAA-20 Satellite Orbit:

Table of predicted SNOs for the next 14.0 days since TLE Epoch: 7/16/2022
Index Date Time (GOES-17) GOES-17 Lat,Lon NOAA-20 Lat,Lon Distance(km) Time Diff (sec)
1 07/16/2022 10:30:59 0.04,-137.29 -0.06,-136.80 55.13 80
2 07/18/2022 22:36:49 -0.04,-137.29 -0.11,-137.57 31.53 80
3 07/19/2022 22:15:24 -0.04,-137.30 0.90,-133.03 485.46 80
4 07/21/2022 10:39:51 0.04,-137.30 0.24,-138.31 114.05 80
5 07/22/2022 10:18:26 0.04,-137.30 -0.77,-133.78 402.43 80
6 07/23/2022 22:40:21 -0.03,-137.30 -0.40,-139.08 202.72 80
7 07/24/2022 22:24:15 -0.02,-137.29 0.61,-134.55 313.35 80
8 07/26/2022 10:46:02 0.02,-137.29 0.59,-139.81 287.60 80
9 07/27/2022 10:24:36 0.00,-137.28 -0.42,-135.27 227.83 80
10 07/28/2022 22:46:32 0.02,-137.26 -0.74,-140.58 379.00 80
11 07/29/2022 22:30:26 0.02,-137.25 0.27,-136.05 136.60 80
